Content
SEND FEEDBACK

Daily
Averages
Monthly
Summary
United States of America

CAMP QUEZON, GUAM


Home > North America > United States > Guam
Elevation: 269 feet     Latitude: 13 28N     Longitude: 144 48E

WEATHER
 
SELECT A DAY
Number of Records: 209,106;   Date Range: 1/1/95 - 8/12/14
 
SHARE

PRINT THIS DATA

[ ← Previous Day ]
WEATHER ALMANAC - JANUARY 13, 2013
[ Next Day → ]
[ °C ]   °F
Weather ElementAverageHighLow
Temperature80.5 °F84.9 °F (12:54 pm)75.9 °F (4:54 am)
Dewpoint72.1 °F73.4 °F (1:23 pm)71.1 °F (1:54 am)
Humidity75.5 %87 % (4:54 am)63 % (3:54 pm)
Barometer29.87 in29.92 in (9:54 am)29.82 in (2:54 pm)
Wind Speed15.2 mph21.9 mph (12:54 pm)
Wind Gust32.2 mph (1:54 pm)
Weather ElementAverage
Visibility10 mi
Wind DirectionENE (64.6 °)

Weather ElementTotal
Precipitation0.15 in
Cooling Degree Days15.4 (Base 65)
Growing Degree Days30.4 (Base 50)
Averaged from 26 records on January 13, 2013
WEATHER CONDITIONS BREAKOUT
WIND DIRECTION BREAKOUT
WEATHER BY HOUR - JANUARY 13, 2013
[ °C ]   °F
Local TimeTemperatureDewpointHumidityBarometerVisibilityWind DirectionWind SpeedGust SpeedPrecipitationEventsConditions
1:54 AM78.1 °F71.1 °F79 %29.90 in10.0 miEast (80°)16.1 mph0.10 inMostly Cloudy
2:54 AM78.1 °F72.0 °F81 %29.89 in10.0 miENE (70°)15.0 mph23.0 mphClear
3:54 AM77.0 °F72.0 °F84 %29.88 in10.0 miENE (60°)11.5 mphPartly Cloudy
4:54 AM75.9 °F72.0 °F87 %29.89 in10.0 miENE (60°)15.0 mphMostly Cloudy
5:54 AM75.9 °F72.0 °F87 %29.89 in10.0 miENE (60°)11.5 mph0.05 inScattered Clouds
6:54 AM77.0 °F72.0 °F84 %29.89 in10.0 miENE (70°)13.8 mphClear
7:54 AM79.0 °F73.0 °F82 %29.91 in10.0 miENE (60°)15.0 mphClear
8:54 AM81.0 °F73.0 °F77 %29.91 in10.0 miENE (70°)17.3 mphPartly Cloudy
9:54 AM81.0 °F72.0 °F74 %29.92 in10.0 miENE (60°)19.6 mph25.3 mphScattered Clouds
10:54 AM84.0 °F73.0 °F69 %29.90 in10.0 miENE (60°)19.6 mphScattered Clouds
11:54 AM82.9 °F72.0 °F69 %29.88 in10.0 miNE (50°)19.6 mphMostly Cloudy
12:54 PM84.9 °F72.0 °F65 %29.86 in10.0 miNE (50°)21.9 mph26.5 mphMostly Cloudy
1:23 PM82.4 °F73.4 °F74 %29.87 in10.0 miENE (60°)20.7 mph0.00 inMostly Cloudy
1:48 PM84.2 °F73.4 °F70 %29.86 in10.0 miNE (50°)19.6 mph29.9 mph0.00 inMostly Cloudy
1:54 PM82.0 °F73.0 °F74 %29.84 in10.0 miENE (60°)17.3 mph32.2 mph0.00 inMostly Cloudy
2:54 PM84.0 °F71.1 °F65 %29.82 in10.0 miENE (60°)21.9 mphMostly Cloudy
3:54 PM84.9 °F71.1 °F63 %29.83 in10.0 miENE (70°)16.1 mphScattered Clouds
4:54 PM82.9 °F71.1 °F67 %29.83 in10.0 miENE (70°)17.3 mph24.2 mphPartly Cloudy
5:54 PM81.0 °F71.1 °F72 %29.83 in10.0 miENE (70°)12.7 mphPartly Cloudy
6:37 PM80.6 °F71.6 °F74 %29.86 in10.0 miENE (70°)13.8 mph21.9 mphMostly Cloudy
6:54 PM80.1 °F73.0 °F79 %29.84 in10.0 miENE (60°)11.5 mphScattered Clouds
7:54 PM80.1 °F73.0 °F79 %29.85 in10.0 miENE (70°)10.4 mphPartly Cloudy
8:54 PM80.1 °F72.0 °F76 %29.85 in10.0 miENE (70°)11.5 mphPartly Cloudy
9:54 PM79.0 °F71.1 °F77 %29.86 in10.0 miENE (70°)11.5 mphScattered Clouds
10:54 PM79.0 °F71.1 °F77 %29.86 in10.0 miEast (80°)8.1 mphScattered Clouds
11:54 PM79.0 °F72.0 °F79 %29.86 in10.0 miENE (70°)8.1 mphMostly Cloudy
Hourly data recorded from PGUM, located miles away from Camp Quezon, Guam







STORIES FROM OUR PARTNERS